GW0274 Weather Reports


Display with metric or nautical units.
time (UTC)temp
F
wind
direction
speed
MPH
gust
MPH
rain 1hr
in
rain 24hr
in
rain mn
in
humidity
%
barometer
mb
20260504081552 37 0 0.0 0.0 0.00 0.00 0.00 94 976.5
20260504044552 41 0 0.0 0.0 0.00 0.00 0.00 86 975.7
20260504043051 42 0 0.0 0.0 0.00 0.00 0.00 85 975.8
20260504041549 42 0 0.0 1.0 0.00 0.00 0.00 85 976.1
20260504040053 42 0 0.0 0.0 0.00 0.00 0.00 85 976.7
20260504034552 43 0 0.0 10.0 0.00 0.00 0.00 85 977.0
20260504033106 43 0 0.0 1.0 0.00 0.00 0.00 86 977.3
20260504031600 43 0 0.0 14.0 0.00 0.00 0.00 86 976.8
20260504030051 43 0 3.0 24.0 0.00 0.00 0.00 86 976.6
20260504024557 42 98 4.0 18.0 0.00 0.00 0.00 86 977.4
20260504023051 42 0 0.0 17.0 0.00 0.00 0.00 85 978.7
20260504021555 42 160 7.0 26.0 0.00 0.00 0.00 84 978.8
20260504020051 42 160 3.0 29.0 0.00 0.00 0.00 85 979.1
20260504014555 42 104 4.0 30.0 0.00 0.00 0.00 84 979.8
20260504013104 42 111 12.0 32.0 0.00 0.00 0.00 84 980.2
20260504011550 43 92 10.0 27.0 0.00 0.00 0.00 86 981.0
20260504010057 42 143 7.0 24.0 0.00 0.00 0.00 86 982.0
20260504004602 42 160 9.0 26.0 0.00 0.00 0.00 87 982.4
20260504003057 42 103 16.0 37.0 0.00 0.00 0.00 86 983.2
20260504001556 42 96 11.0 29.0 0.00 0.00 0.00 87 984.3
20260504000056 42 160 17.0 35.0 0.00 0.00 0.00 86 984.6
20260503234552 43 96 13.0 40.0 0.00 0.00 0.00 85 986.0
20260503233047 42 94 6.0 26.0 0.00 0.00 0.00 86 987.5
20260503231552 42 160 2.0 26.0 0.00 0.00 0.00 88 988.8
20260503230053 43 62 2.0 22.0 0.00 0.00 0.00 89 990.8
20260503224551 42 62 1.0 18.0 0.00 0.00 0.00 92 991.8
20260503223058 39 0 0.0 0.0 0.00 0.00 0.00 92 992.7
20260503221553 39 0 0.0 1.0 0.00 0.00 0.00 92 993.9
20260503220100 39 0 0.0 0.0 0.00 0.00 0.00 91 994.1
20260503214551 39 0 0.0 10.0 0.00 0.00 0.00 90 994.5
20260503213055 39 0 2.0 22.0 0.00 0.00 0.00 89 994.1
20260503211553 41 160 0.0 15.0 0.00 0.00 0.00 89 995.1
20260503210051 41 0 0.0 0.0 0.00 0.00 0.00 91 995.8
20260503204551 41 0 0.0 0.0 0.00 0.00 0.00 91 996.7
20260503203049 41 0 0.0 0.0 0.00 0.00 0.00 90 997.6
20260503201553 41 0 0.0 0.0 0.00 0.00 0.00 87 998.3
20260503200053 42 0 0.0 4.0 0.00 0.00 0.00 86 998.6
20260503194551 42 0 0.0 13.0 0.00 0.00 0.00 83 999.6
20260503193058 44 0 0.0 6.0 0.00 0.00 0.00 76 1000.7
20260503191550 46 0 0.0 3.0 0.00 0.00 0.00 70 1001.8
20260503190052 48 0 0.0 2.0 0.00 0.00 0.00 65 1002.6
20260503184601 48 0 1.0 10.0 0.00 0.00 0.00 62 1003.0
20260503183050 50 83 2.0 12.0 0.00 0.00 0.00 55 1004.1
20260503181549 52 0 0.0 1.0 0.00 0.00 0.00 47 1004.0
20260503180048 52 0 1.0 16.0 0.00 0.00 0.00 43 1004.4
20260503174606 52 121 0.0 11.0 0.00 0.00 0.00 42 1004.3
20260503173055 52 0 1.0 15.0 0.00 0.00 0.00 41 1005.5
20260503171553 51 100 1.0 11.0 0.00 0.00 0.00 44 1005.6